RS-44 & BREEZE-KM R/B (44909 NORAD) Tracking and Keplerian Element Data

This shows tracking and keplerian element data for the satellite.

Feedback or suggestion? Click here.




ElementValue
Catalog44909
NameRS-44 & BREEZE-KM R/B
Epoch Orbit1890
Epoch Day143.79243985
Epoch Year2020
RAAN12.3679
Inclination82.5229
Eccentricity0.0216303
Argument of Perigee286.6783
Mean Anonmoly71.0676
Mean Motion12.79707173
Decay Rate9E-08
L11 44909U 19096E 20143.79243985 .00000009 00000-0 00000-0 0 9997
L22 44909 82.5229 12.3679 0216303 286.6783 71.0676 12.79707173 18908

Live tracking and technical data element details for RS-44 & BREEZE-KM R/B (NORAD 44909). RS-44 & BREEZE-KM R/B can be tracked NOW for your location showing map with azimuth and elevation plus other details from your city location.

Track the satellite on the map from your city or location and see movement details for azimuth, elevation, latitude, longitude, range, height, and movement on the map or in text.







IsCatalogInMostPopularTable: catalog: 44909, numindb: 477
Update: records affected: 1



GetName: 44909 RS-44 & BREEZE-KM R/B

Hit Count: updated at: Mon, 25 May 2020 07:02:44 GMT